RH
25 46 92 91 92 93 91 89 90 89 89 91 90 90 89 89 87 86 86 86 83 78 76 74 74 72 75 77 79 80 83 83 82 73 69 70 72 72 73 74 70 48 72
28 41 93 91 93 94 92 91 91 91 90 90 90 90 90 89 88 87 86 84 80 74 76 76 75 75 78 78 81 82 82 83 81 74 69 72 70 68 69 75 79 59 69
30 41 55 91 93 93 92 91 90 90 90 90 90 90 90 87 86 85 84 84 80 74 74 74 74 76 78 80 81 80 80 79 77 72 75 49 42 65 64 67 73 73 72
30 38 45 93 92 93 93 92 90 90 91 91 90 89 88 86 84 83 83 85 81 74 73 73 75 78 82 84 81 72 70 70 71 78 46 28 36 68 66 62 61 62 68
32 33 49 90 92 92 92 92 91 91 92 92 91 89 87 85 83 83 84 86 81 77 75 73 74 77 80 78 74 68 66 70 76 66 28 33 33 61 65 65 59 62 71
33 32 80 91 91 90 90 90 90 91 92 92 92 90 87 84 84 84 86 83 78 76 78 78 76 78 79 78 75 72 69 70 78 38 36 42 42 68 67 68 67 66 66
33 40 60 92 91 90 90 90 90 91 91 92 92 91 90 88 86 87 87 84 82 79 80 81 81 81 81 79 77 76 76 78 47 32 31 31 50 68 67 69 69 68 66
36 51 56 86 92 92 92 92 92 91 91 92 92 92 92 91 89 87 86 84 83 82 86 85 85 84 83 82 81 79 79 82 47 33 30 28 71 65 63 69 72 70 68
43 54 58 60 72 94 92 92 92 92 91 92 92 92 92 90 90 87 85 83 82 82 83 85 86 86 85 85 84 84 81 82 52 30 30 27 80 69 66 66 72 74 72
52 55 61 60 60 63 66 92 91 92 92 92 91 91 90 89 88 87 87 85 83 82 82 82 84 85 86 86 88 89 88 88 49 33 30 43 76 70 71 72 71 74 76
53 55 59 60 60 60 57 68 90 90 90 90 86 89 88 50 55 64 76 86 83 84 84 83 84 86 89 90 91 90 90 47 35 33 30 78 70 66 68 74 78 79 78
52 52 58 58 63 62 45 64 64 61 60 59 57 65 56 47 44 47 63 84 84 86 87 87 87 88 88 49 60 85 52 39 40 36 34 75 71 68 71 73 78 83 82
46 50 62 56 62 65 51 58 57 67 62 57 53 60 52 49 50 45 49 52 56 79 51 65 63 58 48 42 46 50 51 50 42 36 49 79 75 72 73 76 75 78 84
43 51 56 54 65 62 46 60 61 65 66 57 48 62 58 54 53 50 41 57 49 58 48 47 58 54 54 59 61 56 62 59 54 50 52 85 82 77 75 75 76 76 82
42 50 59 66 72 74 70 61 54 53 70 61 47 54 47 51 62 56 65 55 61 61 62 66 65 65 58 59 54 53 54 53 52 51 55 84 86 84 79 78 77 76 78
37 50 56 66 72 74 62 60 67 58 55 55 47 54 59 64 65 58 60 54 53 56 65 57 64 64 66 62 60 60 58 56 53 57 52 55 87 87 87 82 80 78 77
35 46 56 66 71 72 63 67 62 54 47 48 61 58 63 66 69 67 73 72 67 62 68 61 62 59 55 46 48 47 48 50 41 42 47 44 40 90 90 90 88 84 81
33 42 53 52 64 68 61 60 49 49 48 49 64 73 70 71 70 73 76 69 60 59 52 47 43 35 31 31 31 28 28 28 29 32 28 26 27 30 62 89 90 88 86
31 39 51 54 60 62 58 58 58 60 66 66 74 73 73 71 70 70 57 51 45 39 36 37 34 38 39 35 33 32 33 29 31 24 30 32 35 34 34 69 91 91 89
30 38 49 52 58 63 70 69 75 76 72 67 64 61 64 56 51 45 42 42 35 33 36 45 50 44 42 38 34 33 32 29 27 32 31 30 32 34 34 39 42 35 80
30 39 49 53 63 69 78 81 76 67 60 60 57 60 49 44 41 37 32 37 36 41 49 48 43 41 36 36 36 31 26 31 34 26 31 27 28 30 34 33 32 31 32
34 42 48 50 70 76 78 67 59 55 52 48 47 45 41 41 42 37 39 39 40 39 45 45 43 36 29 31 34 38 34 29 24 28 27 29 35 31 27 28 34 35 34
41 46 46 50 73 78 73 60 63 66 50 46 45 42 39 39 40 43 40 40 41 34 35 40 38 37 33 31 33 34 36 36 39 29 34 27 38 30 29 28 34 34 36
43 46 56 64 75 72 67 66 68 57 51 44 41 34 38 40 40 40 40 39 38 32 36 32 30 41 37 35 33 26 40 40 41 41 29 30 29 30 37 32 32 34 35
41 48 64 71 74 71 68 62 58 54 47 37 34 43 43 43 40 36 38 39 38 31 37 39 42 43 38 38 37 39 43 38 43 40 43 36 31 30 31 33 36 33 34
47 57 62 73 75 71 68 58 61 55 44 38 38 41 42 40 37 36 33 36 36 38 38 40 44 45 45 47 45 44 41 42 42 46 48 49 46 40 34 34 36 34 34
Wind_Speed
18 18 13 13 12 11 13 14 14 14 14 14 12 12 12 11 10 10 11 11 11 11 11 11 11 10 11 11 12 12 12 11 9 7 8 11 11 11 12 14 13 13 12
21 18 13 13 13 12 14 14 14 14 15 13 12 13 12 10 10 11 10 10 9 10 11 11 10 10 11 11 11 10 10 8 5 1 6 14 14 10 12 14 17 10 10
19 19 16 13 14 13 14 15 15 15 14 13 12 12 12 11 10 10 10 9 9 10 10 10 10 10 10 10 10 9 8 6 5 8 6 12 12 11 9 9 9 10 11
18 17 17 14 14 14 13 14 15 15 14 13 12 12 11 11 10 10 10 8 8 10 10 10 9 10 9 9 7 7 6 6 10 11 10 7 14 9 7 5 5 5 7
18 17 17 14 14 14 13 14 14 14 13 12 12 12 12 11 10 9 8 8 7 8 9 9 9 8 7 6 5 4 2 4 10 13 6 7 7 8 4 1 3 4 7
17 17 17 13 14 14 13 13 12 12 12 12 11 11 11 10 10 9 7 6 7 8 9 8 8 7 5 4 3 3 5 10 11 12 4 7 6 7 3 2 4 4 3
16 17 17 12 13 13 13 12 11 11 12 11 11 11 10 9 9 8 7 6 6 6 8 7 6 6 4 2 1 2 5 10 12 5 3 3 12 7 2 1 0 2 2
15 17 17 13 12 11 12 11 12 11 11 11 9 8 8 8 7 7 6 5 5 6 7 7 5 4 3 2 2 4 6 9 11 3 6 3 13 8 3 2 2 3 3
14 14 15 15 14 10 10 10 10 10 9 9 9 9 8 8 7 6 6 6 5 5 6 6 5 4 4 5 4 5 7 9 10 7 5 4 11 8 4 4 5 5 6
13 14 15 14 14 14 12 7 8 8 8 7 8 10 10 9 8 7 7 8 7 6 6 5 6 6 6 7 7 7 8 11 11 7 5 6 11 6 5 7 8 8 8
12 13 15 15 14 14 13 11 8 8 9 10 9 8 10 10 10 12 9 10 7 6 6 6 6 7 8 11 11 11 9 8 5 6 5 11 9 3 6 9 10 10 11
16 16 11 15 14 13 12 14 12 11 10 10 11 11 10 7 4 3 9 8 7 7 7 8 9 10 11 10 9 9 8 4 5 6 3 10 6 3 9 12 12 12 12
16 13 15 14 13 12 11 10 6 5 6 8 11 10 10 4 4 5 7 7 8 10 8 10 10 10 10 5 3 4 6 7 7 5 2 11 8 7 11 13 14 15 14
18 16 15 14 10 13 7 7 8 6 6 8 9 7 5 5 6 7 4 3 3 6 2 4 2 2 3 4 4 6 6 5 5 6 7 9 9 9 11 13 15 16 15
17 17 17 15 14 10 9 10 9 8 7 9 6 8 7 8 4 4 2 3 3 2 3 3 4 4 4 6 7 7 9 10 10 6 6 8 10 11 12 14 16 17 17
16 17 17 17 15 14 13 12 7 7 9 10 7 7 8 4 4 4 3 4 2 3 5 3 3 4 4 4 7 9 10 10 11 10 8 8 12 13 13 15 16 18 19
15 17 18 18 16 15 13 10 10 9 10 8 3 6 7 5 4 3 2 2 1 1 3 4 4 4 5 6 8 8 7 8 9 10 8 10 10 14 13 14 15 15 16
17 18 18 16 18 17 14 12 10 8 7 7 4 4 5 5 4 4 3 3 3 4 3 2 3 6 6 6 6 7 8 9 10 10 10 9 10 11 7 15 5 9 12
18 18 18 18 19 18 15 10 8 9 5 6 6 5 5 6 7 6 4 4 1 1 1 3 4 5 6 7 7 8 9 9 10 10 12 11 10 10 11 2 9 10 10
17 18 17 16 17 15 9 8 6 7 7 7 6 6 8 6 6 4 4 3 2 0 1 5 4 5 6 6 8 9 8 9 9 8 8 9 10 11 10 10 9 10 11
15 17 19 19 16 11 10 10 9 11 9 9 8 10 9 7 6 4 4 4 1 2 3 2 3 5 5 6 7 8 9 10 7 8 7 10 13 10 12 10 9 10 10
17 18 20 19 16 12 10 10 10 10 10 9 9 9 9 8 6 5 4 3 1 4 3 3 4 4 4 5 6 9 6 8 7 11 9 7 11 9 12 13 12 12 11
19 20 21 20 17 14 13 11 10 7 9 9 9 8 8 8 6 6 5 5 4 1 3 3 3 5 5 6 5 5 6 5 9 9 10 9 10 9 10 11 11 11 12
21 18 18 15 18 17 20 15 16 12 12 10 10 9 9 9 7 5 5 4 3 2 2 2 4 4 5 6 6 6 6 8 9 10 9 9 10 10 10 8 10 10 12
21 19 20 16 18 16 19 18 15 14 11 11 9 12 10 9 8 7 5 4 3 1 2 2 3 5 5 6 6 7 7 8 8 10 11 11 11 10 10 9 9 10 12
18 16 17 17 18 17 19 18 18 16 13 12 12 10 9 8 7 6 5 3 2 1 2 3 4 6 6 7 7 8 8 9 9 10 11 11 12 9 10 10 10 10 9
Wind_Direction
120 128 119 118 120 117 120 120 120 123 123 122 125 117 112 114 107 92 84 84 83 88 94 91 87 84 86 82 73 67 67 68 69 78 86 91 70 50 33 19 7 64 59
121 138 127 122 122 121 122 123 125 125 125 127 129 123 120 114 107 101 95 94 98 98 93 88 87 87 84 77 71 71 67 55 26 54 129 115 79 56 37 33 37 52 64
134 135 143 128 125 125 128 133 132 130 131 135 132 126 125 123 119 115 111 109 113 111 107 105 104 99 92 84 74 63 50 35 323 292 248 255 84 77 56 41 43 45 50
140 147 141 134 129 131 137 138 137 138 139 139 135 132 135 136 133 126 118 115 122 121 116 112 112 109 106 107 80 55 25 343 299 293 275 12 99 96 78 47 52 73 41
144 157 133 139 134 137 143 145 144 143 140 142 144 146 146 142 138 132 126 122 124 126 120 114 110 104 104 96 75 63 30 296 288 290 20 26 36 90 63 115 157 92 45
153 153 135 141 141 144 147 146 144 143 144 150 152 151 148 144 141 133 122 136 139 132 121 119 119 117 104 90 82 17 337 313 298 254 176 133 63 92 86 57 41 55 74
157 133 151 146 145 145 147 149 145 149 152 155 157 152 147 144 140 129 118 103 94 117 123 127 133 137 138 131 35 352 316 310 305 343 288 273 102 117 123 160 358 356 1
151 136 152 152 148 150 152 159 154 158 161 157 152 139 130 125 123 123 119 117 117 106 124 135 150 156 170 194 250 287 301 301 296 260 298 272 129 134 180 221 233 245 249
140 153 158 167 162 153 161 166 158 160 162 154 141 132 128 132 130 137 148 148 141 139 146 155 167 181 203 217 232 266 283 293 297 297 312 313 124 140 206 233 249 253 255
147 163 165 172 173 172 174 160 153 151 146 137 139 143 148 150 158 168 177 171 167 167 167 176 183 200 219 231 231 244 269 283 266 299 269 100 130 147 226 255 247 247 247
166 170 168 174 176 178 175 166 156 150 149 147 152 164 175 191 177 165 123 148 172 185 193 197 201 213 228 235 226 219 228 257 287 298 290 124 114 157 257 264 263 246 244
173 175 176 177 180 181 186 158 186 172 184 191 189 176 222 209 167 74 124 154 187 202 215 213 215 226 237 252 196 221 232 328 297 289 317 118 121 236 263 263 261 259 245
175 174 187 187 181 191 203 164 189 174 184 208 200 182 220 158 192 209 172 181 195 204 215 200 203 225 232 332 10 354 324 307 307 303 120 149 168 228 261 265 263 259 253
173 176 181 195 177 194 165 170 175 178 208 218 208 193 161 215 192 248 213 107 222 168 232 221 181 250 282 269 310 284 246 236 263 293 308 174 180 213 244 261 266 263 257
174 171 179 181 181 187 158 178 204 192 176 231 197 189 207 214 189 187 166 205 182 224 169 16 21 345 302 283 273 293 282 281 277 275 280 191 197 212 233 248 254 255 254
176 176 179 179 184 182 197 178 209 216 176 212 199 186 223 196 202 213 194 224 232 287 0 309 285 279 273 286 286 292 294 301 298 306 310 299 212 214 223 236 249 256 261
179 176 176 180 181 186 195 172 191 192 202 200 170 156 200 214 201 209 164 37 81 228 230 264 275 272 269 248 248 242 263 254 280 292 260 260 279 202 223 233 239 248 266
181 180 172 183 180 183 191 186 192 181 196 182 147 190 190 183 166 134 155 150 182 186 224 305 318 326 318 318 308 309 319 307 306 308 283 291 310 316 236 226 250 257 271
184 179 177 181 180 182 190 181 183 151 158 153 147 137 141 149 165 178 166 104 236 63 9 341 340 332 323 316 319 323 311 306 313 307 306 316 312 325 330 257 202 228 246
189 180 181 180 182 177 151 165 146 142 151 149 148 134 151 138 142 151 118 121 274 348 13 18 337 328 308 320 326 312 306 306 301 300 316 310 334 318 307 336 322 315 254
198 183 186 182 176 163 161 153 163 163 158 155 156 162 148 148 137 166 129 147 178 64 44 19 325 329 315 4 311 327 315 279 316 304 349 335 309 319 323 320 329 332 331
202 196 188 186 162 165 169 170 171 162 164 156 150 156 143 150 151 140 139 146 36 125 96 32 4 344 329 5 335 313 333 299 7 348 326 320 309 340 331 323 322 315 312
211 199 191 182 166 164 178 161 161 149 151 157 156 154 155 148 140 137 141 103 121 21 80 23 11 359 336 330 349 309 326 333 322 318 321 309 338 322 310 309 307 300 313
209 197 188 178 172 181 177 165 167 170 169 173 169 155 150 148 146 137 123 109 73 84 73 14 39 337 324 318 329 330 315 302 311 310 307 308 307 307 302 304 306 300 306
204 191 186 192 179 177 176 172 172 178 180 163 160 150 150 149 152 152 142 132 129 24 55 332 326 327 316 320 320 313 310 300 301 303 304 308 308 305 310 300 304 303 295
196 185 180 192 179 174 178 177 182 178 162 165 159 163 157 159 156 148 149 157 139 14 318 311 318 304 307 306 296 296 300 308 306 303 301 306 301 298 302 301 301 299 301